FALCON 9 DEB (44974 NORAD) Tracking and Keplerian Element Data

This shows tracking and keplerian element data for the satellite.

Feedback or suggestion? Click here.




ElementValue
Catalog44974
NameFALCON 9 DEB
Epoch Orbit1013
Epoch Day70.11763578
Epoch Year2020
RAAN68.9601
Inclination52.9823
Eccentricity0.0001883
Argument of Perigee166.1558
Mean Anonmoly193.9538
Mean Motion16.38262313
Decay Rate0.0425346
L11 44974U 20001BN 20070.11763578 .04253460 12293-4 38272-3 0 9998
L22 44974 52.9823 68.9601 0001883 166.1558 193.9538 16.38262313 10139

Live tracking and technical data element details for FALCON 9 DEB (NORAD 44974). FALCON 9 DEB can be tracked NOW for your location showing map with azimuth and elevation plus other details from your city location.

Track the satellite on the map from your city or location and see movement details for azimuth, elevation, latitude, longitude, range, height, and movement on the map or in text.







IsCatalogInMostPopularTable: catalog: 44974, numindb: 18
Update: records affected: 1



GetName: 44974 FALCON 9 DEB

Hit Count: updated at: Fri, 03 Apr 2020 23:49:37 GMT